Tracking 20239 objects as of 23-Jan-2020
HD Live streaming from Space Station
objects crossing your sky now

TITAN 4B R/B

Track TITAN 4B R/B now!
10-day predictions
TITAN 4B R/B is classified as:


NORAD ID: 26474
Int'l Code: 2000-047B
Perigee: 547.5 km
Apogee: 625.9 km
Inclination: 68.0 °
Period: 96.3 minutes
Semi major axis: 6957 km
RCS: 15.6118 m2 (large)
Launch date: August 17, 2000
Source: United States (US)
Launch site: AIR FORCE WESTERN TEST RANGE (AFWTR)

Note: This is a ROCKET BODY
aabbcc
Your satellite tracking list
Your tracking list is empty




NASA's NSSDC Master Catalog

Two Line Element Set (TLE):
1 26474U 00047B   20022.55750894 -.00000015 +00000-0 +97263-5 0  9992
2 26474 067.9942 120.0242 0056346 353.8942 006.1506 14.95904550057272
Source of the keplerian elements: AFSPC